"Period start","avg(HW err(1)/warn(2) (#))","avg(Visibility (m))","avg(Weather code (#))","avg(Precip intensity (mm/h))","min(HW err(1)/warn(2) (#))","max(HW err(1)/warn(2) (#))","std(HW err(1)/warn(2) (#))","med(HW err(1)/warn(2) (#))","min(Visibility (m))","max(Visibility (m))","std(Visibility (m))","med(Visibility (m))","min(Weather code (#))","max(Weather code (#))","std(Weather code (#))","med(Weather code (#))","min(Precip intensity (mm/h))","max(Precip intensity (mm/h))","std(Precip intensity (mm/h))","med(Precip intensity (mm/h))"
2016-07-29 00:00:00,2,1508,20,0.00,2,2,0,2,671,2928,654,1369,20,20,0,20,0.00,0.00,0.00,0.00
2016-07-29 00:10:00,2,610,31,0.00,2,2,0,2,442,835,104,612,20,34,6,34,0.00,0.00,0.00,0.00
2016-07-29 00:20:00,2,762,34,0.00,2,2,0,2,590,1004,115,766,34,34,0,34,0.00,0.00,0.00,0.00
2016-07-29 00:30:00,2,2342,31,0.00,2,2,0,2,1020,4229,1090,2494,20,34,6,34,0.00,0.00,0.00,0.00
2016-07-29 00:40:00,2,1414,20,0.00,2,2,0,2,831,2257,519,1199,20,20,0,20,0.00,0.00,0.00,0.00
2016-07-29 00:50:00,2,1926,20,0.00,2,2,0,2,876,3324,708,1798,20,20,0,20,0.00,0.00,0.00,0.00
2016-07-29 01:00:00,2,2305,20,0.00,2,2,0,2,1539,4313,818,1961,20,20,0,20,0.00,0.00,0.00,0.00
2016-07-29 01:10:00,2,3040,20,0.00,2,2,0,2,866,5105,1296,3402,20,20,0,20,0.00,0.00,0.00,0.00
2016-07-29 01:20:00,2,1376,20,0.00,2,2,0,2,1011,1915,334,1236,20,20,0,20,0.00,0.00,0.00,0.00
2016-07-29 01:30:00,2,3623,18,0.00,2,2,0,2,2612,4627,664,3489,10,20,4,20,0.00,0.00,0.00,0.00
2016-07-29 01:40:00,2,5064,10,0.00,2,2,0,2,3203,6342,1052,5004,10,10,0,10,0.00,0.00,0.00,0.00
2016-07-29 01:50:00,2,10777,10,0.00,2,2,0,2,5033,24990,5832,8904,10,10,0,10,0.00,0.00,0.00,0.00
2016-07-29 02:00:00,2,22746,10,0.00,2,2,0,2,9886,49247,13563,18182,10,10,0,10,0.00,0.00,0.00,0.00
2016-07-29 02:10:00,2,35500,0,0.00,2,2,0,2,9088,50000,14849,42151,0,0,0,0,0.00,0.00,0.00,0.00
2016-07-29 02:20:00,2,49608,0,0.00,2,2,0,2,48082,50000,666,50000,0,0,0,0,0.00,0.00,0.00,0.00
2016-07-29 02:30:00,2,49507,0,0.00,2,2,0,2,46900,50000,956,50000,0,0,0,0,0.00,0.00,0.00,0.00
2016-07-29 02:40:00,2,49763,0,0.00,2,2,0,2,48147,50000,560,50000,0,0,0,0,0.00,0.00,0.00,0.00
2016-07-29 02:50:00,2,50000,0,0.00,2,2,0,2,50000,50000,0,50000,0,0,0,0,0.00,0.00,0.00,0.00
2016-07-29 03:00:00,2,47951,0,0.00,0,2,1,2,43723,50000,2096,48558,0,0,0,0,0.00,0.00,0.00,0.00
2016-07-29 03:10:00,1,49236,0,0.00,0,2,1,0,43756,50000,1873,50000,0,0,0,0,0.00,0.00,0.00,0.00
2016-07-29 03:20:00,0,49904,0,0.00,0,2,1,0,49115,50000,264,50000,0,0,0,0,0.00,0.00,0.00,0.00
2016-07-29 03:30:00,0,45830,0,0.00,0,0,0,0,39210,50000,3507,46809,0,0,0,0,0.00,0.00,0.00,0.00
2016-07-29 03:40:00,0,48456,0,0.00,0,0,0,0,42223,50000,2563,49774,0,0,0,0,0.00,0.00,0.00,0.00
2016-07-29 03:50:00,1,48149,0,0.00,0,2,1,1,43119,50000,2317,49558,0,0,0,0,0.00,0.00,0.00,0.00
2016-07-29 04:00:00,0,48723,0,0.00,0,2,1,0,44689,50000,1872,49756,0,0,0,0,0.00,0.00,0.00,0.00
2016-07-29 04:10:00,0,48173,0,0.00,0,0,0,0,43354,50000,2589,49720,0,0,0,0,0.00,0.00,0.00,0.00
2016-07-29 04:20:00,0,48378,0,0.00,0,0,0,0,41371,50000,3041,50000,0,0,0,0,0.00,0.00,0.00,0.00
2016-07-29 04:30:00,0,46744,0,0.00,0,0,0,0,41534,50000,3271,47603,0,0,0,0,0.00,0.00,0.00,0.00
2016-07-29 04:40:00,0,44902,0,0.00,0,0,0,0,37776,50000,4080,45231,0,0,0,0,0.00,0.00,0.00,0.00
2016-07-29 04:50:00,0,46574,0,0.00,0,0,0,0,36633,50000,4404,49179,0,0,0,0,0.00,0.00,0.00,0.00
2016-07-29 05:00:00,0,48004,0,0.00,0,0,0,0,43331,50000,2099,48874,0,0,0,0,0.00,0.00,0.00,0.00
2016-07-29 05:10:00,0,49592,0,0.00,0,0,0,0,47802,50000,718,50000,0,0,0,0,0.00,0.00,0.00,0.00
2016-07-29 05:20:00,0,48493,0,0.00,0,0,0,0,43562,50000,1990,49292,0,0,0,0,0.00,0.00,0.00,0.00
2016-07-29 05:30:00,0,48382,0,0.00,0,0,0,0,42792,50000,2301,49992,0,0,0,0,0.00,0.00,0.00,0.00
2016-07-29 05:40:00,0,49746,0,0.00,0,0,0,0,47726,50000,678,50000,0,0,0,0,0.00,0.00,0.00,0.00
2016-07-29 05:50:00,0,47934,0,0.00,0,0,0,0,40557,50000,2727,48572,0,0,0,0,0.00,0.00,0.00,0.00
2016-07-29 06:00:00,0,49440,0,0.00,0,0,0,0,46227,50000,1135,50000,0,0,0,0,0.00,0.00,0.00,0.00
2016-07-29 06:10:00,0,48028,0,0.00,0,0,0,0,42655,50000,2545,49818,0,0,0,0,0.00,0.00,0.00,0.00
2016-07-29 06:20:00,0,48994,0,0.00,0,0,0,0,45438,50000,1411,49840,0,0,0,0,0.00,0.00,0.00,0.00
2016-07-29 06:30:00,0,47118,0,0.00,0,0,0,0,40639,50000,3608,49840,0,0,0,0,0.00,0.00,0.00,0.00
2016-07-29 06:40:00,0,48614,0,0.00,0,0,0,0,45105,50000,1843,49494,0,0,0,0,0.00,0.00,0.00,0.00
2016-07-29 06:50:00,0,49440,0,0.00,0,0,0,0,45705,50000,1272,50000,0,0,0,0,0.00,0.00,0.00,0.00
2016-07-29 07:00:00,0,46171,0,0.00,0,0,0,0,42359,50000,2606,45899,0,0,0,0,0.00,0.00,0.00,0.00
2016-07-29 07:10:00,0,49634,0,0.00,0,0,0,0,47307,50000,827,50000,0,0,0,0,0.00,0.00,0.00,0.00
2016-07-29 07:20:00,0,42829,0,0.00,0,0,0,0,37333,50000,3676,43583,0,0,0,0,0.00,0.00,0.00,0.00
2016-07-29 07:30:00,0,48663,0,0.00,0,0,0,0,44109,50000,1721,49102,0,0,0,0,0.00,0.00,0.00,0.00
2016-07-29 07:40:00,0,49708,0,0.00,0,0,0,0,47795,50000,669,50000,0,0,0,0,0.00,0.00,0.00,0.00
2016-07-29 07:50:00,0,47502,0,0.00,0,0,0,0,41415,50000,2962,48850,0,0,0,0,0.00,0.00,0.00,0.00
2016-07-29 08:00:00,0,49740,0,0.00,0,0,0,0,47889,50000,634,50000,0,0,0,0,0.00,0.00,0.00,0.00
2016-07-29 08:10:00,0,48754,0,0.00,0,0,0,0,45808,50000,1572,49568,0,0,0,0,0.00,0.00,0.00,0.00
2016-07-29 08:20:00,0,46656,0,0.00,0,0,0,0,32591,50000,5859,49776,0,0,0,0,0.00,0.00,0.00,0.00
2016-07-29 08:30:00,0,49180,0,0.00,0,0,0,0,46357,50000,1329,50000,0,0,0,0,0.00,0.00,0.00,0.00
2016-07-29 08:40:00,0,47569,0,0.00,0,0,0,0,42061,50000,3104,49662,0,0,0,0,0.00,0.00,0.00,0.00
2016-07-29 08:50:00,0,48945,0,0.00,0,0,0,0,41851,50000,2416,50000,0,0,0,0,0.00,0.00,0.00,0.00
2016-07-29 09:00:00,0,48845,0,0.00,0,0,0,0,43711,50000,2322,50000,0,0,0,0,0.00,0.00,0.00,0.00
2016-07-29 09:10:00,0,49270,0,0.00,0,0,0,0,43803,50000,1840,50000,0,0,0,0,0.00,0.00,0.00,0.00
2016-07-29 09:20:00,0,50000,0,0.00,0,0,0,0,50000,50000,0,50000,0,0,0,0,0.00,0.00,0.00,0.00
2016-07-29 09:30:00,0,48521,0,0.00,0,0,0,0,45263,50000,1686,49042,0,0,0,0,0.00,0.00,0.00,0.00
2016-07-29 09:40:00,0,49329,0,0.00,0,0,0,0,46736,50000,1137,50000,0,0,0,0,0.00,0.00,0.00,0.00
2016-07-29 09:50:00,0,45624,0,0.00,0,0,0,0,40158,50000,3589,45930,0,0,0,0,0.00,0.00,0.00,0.00
2016-07-29 10:00:00,0,46141,0,0.00,0,0,0,0,41302,50000,2910,45313,0,0,0,0,0.00,0.00,0.00,0.00
2016-07-29 10:10:00,0,49524,0,0.00,0,0,0,0,48137,50000,734,50000,0,0,0,0,0.00,0.00,0.00,0.00
2016-07-29 10:20:00,0,49552,0,0.00,0,0,0,0,46208,50000,1133,50000,0,0,0,0,0.00,0.00,0.00,0.00
2016-07-29 10:30:00,0,49572,0,0.00,0,0,0,0,47452,50000,753,49970,0,0,0,0,0.00,0.00,0.00,0.00
2016-07-29 10:40:00,0,47974,0,0.00,0,0,0,0,44690,50000,1777,47718,0,0,0,0,0.00,0.00,0.00,0.00
2016-07-29 10:50:00,0,47873,0,0.00,0,0,0,0,43252,50000,2213,48706,0,0,0,0,0.00,0.00,0.00,0.00
2016-07-29 11:00:00,0,46568,0,0.00,0,0,0,0,41985,50000,2834,46272,0,0,0,0,0.00,0.00,0.00,0.00
2016-07-29 11:10:00,0,48505,0,0.00,0,0,0,0,45217,50000,1744,49260,0,0,0,0,0.00,0.00,0.00,0.00
2016-07-29 11:20:00,0,48511,0,0.00,0,0,0,0,45180,50000,1685,49029,0,0,0,0,0.00,0.00,0.00,0.00
2016-07-29 11:30:00,0,22751,61,4.04,0,0,0,0,17083,35024,5031,22216,61,61,0,61,0.35,8.50,2.13,3.60
2016-07-29 11:40:00,0,38166,55,0.69,0,0,0,0,23669,50000,9208,41343,51,61,5,52,0.00,2.30,0.70,0.38
2016-07-29 11:50:00,0,40081,57,0.12,0,0,0,0,31757,45713,3952,39564,41,61,8,61,0.00,0.75,0.22,0.05
2016-07-29 12:00:00,0,46417,6,0.02,0,0,0,0,34248,50000,4972,48964,0,61,18,0,0.00,0.20,0.06,0.00
2016-07-29 12:10:00,0,32415,59,1.17,0,0,0,0,25629,41153,4371,32472,51,61,4,61,0.05,2.75,0.94,0.90
2016-07-29 12:20:00,0,36071,57,0.89,0,0,0,0,31274,43663,4040,36511,51,61,5,61,0.15,1.75,0.64,0.70
2016-07-29 12:30:00,0,42038,33,0.03,0,0,0,0,32505,50000,5394,43162,0,61,27,51,0.00,0.20,0.06,0.00
2016-07-29 12:40:00,0,47205,0,0.00,0,0,0,0,44154,50000,1987,47228,0,0,0,0,0.00,0.00,0.00,0.00
2016-07-29 12:50:00,0,42394,0,0.00,0,0,0,0,35264,48088,4853,43010,0,0,0,0,0.00,0.00,0.00,0.00
2016-07-29 13:00:00,0,36327,18,0.25,0,0,0,0,14708,47040,9447,38806,0,61,28,0,0.00,1.65,0.51,0.00
2016-07-29 13:10:00,0,38822,61,0.40,0,0,0,0,31411,43876,3426,39442,61,61,0,61,0.00,0.85,0.30,0.35
2016-07-29 13:20:00,0,42570,11,0.00,0,0,0,0,34651,48726,4536,43676,0,61,23,0,0.00,0.00,0.00,0.00
2016-07-29 13:30:00,0,39799,0,0.00,0,0,0,0,13458,50000,12585,45384,0,0,0,0,0.00,0.00,0.00,0.00
2016-07-29 13:40:00,0,47240,0,0.00,0,0,0,0,41493,50000,3142,48574,0,0,0,0,0.00,0.00,0.00,0.00
2016-07-29 13:50:00,0,44923,0,0.00,0,0,0,0,38527,49568,3093,45090,0,0,0,0,0.00,0.00,0.00,0.00
2016-07-29 14:00:00,0,41194,0,0.00,0,0,0,0,35015,47526,4230,41288,0,0,0,0,0.00,0.00,0.00,0.00
2016-07-29 14:10:00,0,39277,0,0.00,0,0,0,0,33358,45622,3579,39301,0,0,0,0,0.00,0.00,0.00,0.00
2016-07-29 14:20:00,0,41923,0,0.00,0,0,0,0,38237,45981,2329,41358,0,0,0,0,0.00,0.00,0.00,0.00
2016-07-29 14:30:00,0,37404,0,0.00,0,0,0,0,31418,45064,4150,36618,0,0,0,0,0.00,0.00,0.00,0.00
2016-07-29 14:40:00,0,33480,0,0.00,0,0,0,0,28571,37115,2760,33604,0,0,0,0,0.00,0.00,0.00,0.00
2016-07-29 14:50:00,0,36696,0,0.00,0,0,0,0,28323,45022,6032,37508,0,0,0,0,0.00,0.00,0.00,0.00
2016-07-29 15:00:00,0,37395,0,0.00,0,0,0,0,33622,42181,2611,37178,0,0,0,0,0.00,0.00,0.00,0.00
2016-07-29 15:10:00,0,34682,0,0.00,0,0,0,0,31989,38488,1906,35098,0,0,0,0,0.00,0.00,0.00,0.00
2016-07-29 15:20:00,0,35338,0,0.00,0,0,0,0,30990,40215,3411,35913,0,0,0,0,0.00,0.00,0.00,0.00
2016-07-29 15:30:00,0,37095,0,0.00,0,0,0,0,32764,42196,3256,36178,0,0,0,0,0.00,0.00,0.00,0.00
2016-07-29 15:40:00,0,36880,0,0.00,0,0,0,0,32231,42772,2911,37082,0,0,0,0,0.00,0.00,0.00,0.00
2016-07-29 15:50:00,0,31021,0,0.00,0,0,0,0,28365,33322,1759,31214,0,0,0,0,0.00,0.00,0.00,0.00
2016-07-29 16:00:00,0,34352,0,0.00,0,0,0,0,29083,42887,4215,34130,0,0,0,0,0.00,0.00,0.00,0.00
2016-07-29 16:10:00,0,30022,0,0.00,0,0,0,0,26457,32205,1721,30244,0,0,0,0,0.00,0.00,0.00,0.00
2016-07-29 16:20:00,0,33451,0,0.00,0,0,0,0,28163,42563,4141,33343,0,0,0,0,0.00,0.00,0.00,0.00
2016-07-29 16:30:00,0,33888,0,0.00,0,0,0,0,28867,39551,3790,32710,0,0,0,0,0.00,0.00,0.00,0.00
2016-07-29 16:40:00,0,33782,0,0.00,0,0,0,0,29341,39726,3429,33842,0,0,0,0,0.00,0.00,0.00,0.00
2016-07-29 16:50:00,0,29069,0,0.00,0,0,0,0,26688,34964,2213,28809,0,0,0,0,0.00,0.00,0.00,0.00
2016-07-29 17:00:00,0,31241,0,0.00,0,0,0,0,27361,35893,2462,30866,0,0,0,0,0.00,0.00,0.00,0.00
2016-07-29 17:10:00,0,31800,0,0.00,0,0,0,0,26375,40260,4759,29846,0,0,0,0,0.00,0.00,0.00,0.00
2016-07-29 17:20:00,0,29813,0,0.00,0,0,0,0,26999,38486,3111,28947,0,0,0,0,0.00,0.00,0.00,0.00
2016-07-29 17:30:00,0,28396,0,0.00,0,0,0,0,24431,32943,2241,28223,0,0,0,0,0.00,0.00,0.00,0.00
2016-07-29 17:40:00,0,27526,0,0.00,0,0,0,0,23523,33314,2632,26750,0,0,0,0,0.00,0.00,0.00,0.00
2016-07-29 17:50:00,0,24417,0,0.00,0,0,0,0,19511,29473,2570,23894,0,0,0,0,0.00,0.00,0.00,0.00
2016-07-29 18:00:00,0,22307,0,0.00,0,0,0,0,21005,23754,818,22317,0,0,0,0,0.00,0.00,0.00,0.00
2016-07-29 18:10:00,0,21989,0,0.00,0,0,0,0,18925,25002,1886,21958,0,0,0,0,0.00,0.00,0.00,0.00
2016-07-29 18:20:00,0,22079,0,0.00,0,0,0,0,18884,24119,1604,21830,0,0,0,0,0.00,0.00,0.00,0.00
2016-07-29 18:30:00,0,20707,0,0.00,0,0,0,0,19054,21880,916,20534,0,0,0,0,0.00,0.00,0.00,0.00
2016-07-29 18:40:00,0,17673,0,0.00,0,0,0,0,16230,19483,1098,17413,0,0,0,0,0.00,0.00,0.00,0.00
2016-07-29 18:50:00,0,17504,0,0.00,0,0,0,0,16513,18816,788,17172,0,0,0,0,0.00,0.00,0.00,0.00
2016-07-29 19:00:00,0,17297,0,0.00,0,0,0,0,16029,18999,1029,17290,0,0,0,0,0.00,0.00,0.00,0.00
2016-07-29 19:10:00,0,16658,0,0.00,0,0,0,0,15011,18660,1039,16556,0,0,0,0,0.00,0.00,0.00,0.00
2016-07-29 19:20:00,0,15433,0,0.00,0,0,0,0,14296,16626,683,15398,0,0,0,0,0.00,0.00,0.00,0.00
2016-07-29 19:30:00,0,15318,0,0.00,0,0,0,0,13912,17040,893,15414,0,0,0,0,0.00,0.00,0.00,0.00
2016-07-29 19:40:00,0,14991,0,0.00,0,0,0,0,13313,16376,886,15086,0,0,0,0,0.00,0.00,0.00,0.00
2016-07-29 19:50:00,0,14423,0,0.00,0,0,0,0,13558,15134,613,14599,0,0,0,0,0.00,0.00,0.00,0.00
2016-07-29 20:00:00,0,14430,0,0.00,0,0,0,0,12952,16150,897,14402,0,0,0,0,0.00,0.00,0.00,0.00
2016-07-29 20:10:00,0,14842,0,0.00,0,0,0,0,14138,15411,506,15116,0,0,0,0,0.00,0.00,0.00,0.00
2016-07-29 20:20:00,0,14838,0,0.00,0,0,0,0,13579,16237,713,14744,0,0,0,0,0.00,0.00,0.00,0.00
2016-07-29 20:30:00,0,16049,0,0.00,0,0,0,0,14670,17946,1032,16074,0,0,0,0,0.00,0.00,0.00,0.00
2016-07-29 20:40:00,0,17755,0,0.00,0,0,0,0,15537,19732,1140,17740,0,0,0,0,0.00,0.00,0.00,0.00
2016-07-29 20:50:00,0,16998,30,1.58,0,0,0,0,10504,21525,2790,17211,0,61,30,30,0.00,4.30,1.71,1.10
2016-07-29 21:00:00,0,14157,61,5.66,0,0,0,0,12356,15889,921,14134,61,61,0,61,1.35,9.35,2.88,4.88
2016-07-29 21:10:00,0,12328,62,23.04,0,0,0,0,10590,15674,1412,11956,61,62,0,62,9.60,37.95,8.91,23.40
2016-07-29 21:20:00,0,12382,62,10.09,0,0,0,0,10755,14407,943,12332,61,62,0,62,5.65,14.70,2.93,9.80
2016-07-29 21:30:00,0,11290,62,13.43,0,0,0,0,8204,16010,2804,10340,61,62,0,62,2.05,32.05,9.28,13.40
2016-07-29 21:40:00,0,10665,62,15.29,0,0,0,0,9623,11820,776,10359,61,62,0,62,6.30,29.00,7.21,12.45
2016-07-29 21:50:00,0,13397,62,14.31,0,0,0,0,11670,15289,1000,13178,61,62,0,62,3.30,23.80,5.50,14.15
2016-07-29 22:00:00,0,15187,62,11.18,0,0,0,0,12012,18897,2365,14776,61,62,0,62,3.65,18.95,5.40,10.00
2016-07-29 22:10:00,0,12278,62,34.90,0,0,0,0,10722,13758,808,12352,62,63,0,62,13.50,64.15,15.93,31.92
2016-07-29 22:20:00,0,10169,62,42.99,0,0,0,0,7994,12703,1213,10180,62,63,0,62,24.30,80.50,15.43,39.80
2016-07-29 22:30:00,0,10381,62,29.96,0,0,0,0,9342,13908,1399,9812,62,63,0,62,15.15,56.50,10.63,30.23
2016-07-29 22:40:00,0,12953,61,4.76,0,0,0,0,11546,14283,793,13076,61,61,0,61,1.25,8.65,2.02,4.83
2016-07-29 22:50:00,0,17470,53,0.44,0,0,0,0,14202,22364,2248,17376,0,61,18,61,0.00,1.85,0.62,0.05
2016-07-29 23:00:00,0,25956,0,0.00,0,0,0,0,18523,33871,4470,25412,0,0,0,0,0.00,0.00,0.00,0.00
2016-07-29 23:10:00,0,26081,0,0.00,0,0,0,0,21279,32180,3604,25612,0,0,0,0,0.00,0.00,0.00,0.00
2016-07-29 23:20:00,0,30862,0,0.00,0,0,0,0,25112,39585,4013,30560,0,0,0,0,0.00,0.00,0.00,0.00
2016-07-29 23:30:00,0,36411,26,0.26,0,0,0,0,24647,48859,7656,35880,0,61,27,20,0.00,1.50,0.47,0.00
2016-07-29 23:40:00,0,38869,56,0.25,0,0,0,0,30292,48496,4772,38070,51,61,5,56,0.00,1.00,0.29,0.17
2016-07-29 23:50:00,0,43739,28,0.16,0,0,0,0,35337,50000,5139,44684,0,61,29,26,0.00,0.85,0.27,0.00
